#timestamp,LO_Frequency,Hit,StdDev 
1532422815.7,286046995.9,N
1532422835.5,286046993.2,Y
1532422855.4,286046996.6,P
1532422875.2,286046997.8,P
1532422895.0,286046996.6,P
1532422896.0,286046996.6,Y
1532422915.8,286047002.1,P
1532422935.6,286047004.3,N
1532422955.5,286047003.8,N
1532422975.3,286047003.6,N
1532422995.1,286047005.1,N
1532423015.9,286047001.9,N
1532423035.7,286047000.2,N
1532423055.6,286047000.8,N
1532423075.4,286047000.0,N
1532423095.2,286046999.9,N
1532423115.1,286047000.3,N
1532423116.0,286047000.3,N
1532423135.8,286047002.1,N
1532423155.6,286047002.1,N
1532423175.5,286047001.5,N
1532423195.3,286047001.8,N
1532423215.2,286047003.7,N
1532423235.9,286047003.8,N
1532423255.7,286047003.7,N
1532423275.6,286047001.5,N
1532423295.4,286047005.6,N
1532423315.2,286047003.9,N
1532423335.1,286047001.3,N
1532423336.0,286047001.3,N
1532423355.8,286047002.2,N
1532423375.7,286047001.9,N
1532423395.5,286047004.0,N
1532423415.3,286047003.8,N
1532423435.2,286047004.4,N
1532423455.0,286047002.2,N
1532423455.9,286047002.2,N
1532423475.7,286047003.0,N
1532423495.6,286047005.3,Y
1532423515.4,286047003.8,P
1532423535.3,286047002.0,N
1532423555.1,286047001.9,N
1532423575.8,286047001.7,N
1532423595.7,286047003.7,Y
1532423615.5,286047001.0,P
1532423635.4,286047002.1,P
1532423655.2,286047001.1,N
1532423675.0,286047001.2,N
1532423675.9,286047001.2,N
1532423695.8,286046998.1,Y
1532423715.6,286046999.2,P
1532423735.4,286046996.6,N
1532423755.3,286046996.7,N
1532423775.1,286046999.8,N
1532423795.9,286047001.9,N
1532423815.7,286047002.6,N
1532423835.5,286046998.2,N
1532423855.4,286046998.3,N
1532423875.2,286046997.6,N
1532423895.0,286046993.3,Y
1532423896.0,286046993.3,P
1532423915.8,286046994.6,N
1532423935.6,286046991.8,P
1532423955.5,286046989.4,Y
1532423975.3,286046995.2,P
1532423995.1,286046995.8,P
1532424015.9,286046996.2,P
1532424035.7,286046995.9,Y
1532424055.6,286047002.6,P
1532424075.4,286047004.2,N
1532424095.2,286047003.7,N
1532424115.1,286047001.4,N
1532424116.0,286047001.4,N
1532424135.8,286047004.4,N
1532424155.7,286047001.5,N
1532424175.5,286047003.1,N
1532424195.3,286047005.6,N
1532424215.2,286047005.7,N
1532424235.0,286047003.3,N
1532424235.9,286047003.3,N
1532424255.7,286047004.9,N
1532424275.6,286047009.1,Y
1532424295.4,286047004.4,P
1532424315.3,286047003.0,P
1532424335.1,286047004.0,P
1532424336.0,286047004.0,Y
1532424355.8,286046998.7,P
1532424375.7,286047000.2,N
1532424395.5,286047002.8,N
1532424415.4,286047000.1,N
1532424435.2,286046998.1,N
1532424455.0,286047000.3,N
1532424455.9,286047000.3,N
1532424475.8,286047002.3,N
1532424495.6,286047001.4,N
1532424515.4,286047004.1,N
1532424535.3,286047003.2,N
1532424555.1,286047002.2,N
1532424575.9,286047001.5,N
1532424595.7,286047002.9,N
1532424615.5,286047003.7,N
1532424635.4,286047004.1,N
1532424655.2,286047001.7,N
1532424675.0,286047001.6,N
1532424675.9,286047001.6,N
1532424695.8,286047000.1,N
1532424715.6,286047000.9,N
1532424735.5,286047000.9,N
1532424755.3,286047000.3,N
1532424775.1,286047002.7,N
1532424795.9,286047000.9,N
1532424815.7,286046999.8,N
1532424835.5,286047001.8,N
1532424855.4,286047001.6,N
1532424875.2,286046999.7,N
1532424895.1,286047000.2,N
1532424896.0,286047000.2,N
1532424915.8,286046998.1,N
1532424935.6,286046998.4,N
1532424955.5,286047001.1,N
1532424975.3,286047001.2,N
1532424995.1,286046999.0,N
1532425015.9,286046999.5,N
1532425035.7,286046999.0,N
1532425055.6,286046997.0,N
1532425075.4,286046994.9,N
1532425095.2,286046995.7,N
1532425115.1,286046994.9,N
1532425116.0,286046994.9,N
1532425135.8,286046999.5,N
1532425155.6,286046996.5,N
1532425175.5,286046999.2,N
1532425195.3,286046999.1,N
1532425215.2,286046999.3,N
1532425235.9,286046996.5,N
1532425255.7,286046999.1,N
1532425275.6,286046998.8,N
1532425295.4,286046998.9,N
1532425315.2,286046998.2,N
1532425335.1,286046998.6,N
1532425336.0,286046998.6,N
1532425355.8,286046999.4,N
1532425375.7,286046999.2,N
1532425395.5,286046998.9,N
1532425415.3,286046998.3,N
1532425435.2,286047000.7,N
1532425455.0,286047000.5,N
1532425455.9,286047000.5,N
1532425475.8,286046998.2,N
1532425495.6,286046998.9,N
1532425515.4,286046998.4,N
1532425535.3,286047000.7,N
1532425555.1,286047000.6,N
1532425575.8,286047001.0,N
1532425595.7,286047001.1,N
1532425615.5,286047000.7,N
1532425635.4,286046999.8,N
1532425655.2,286047000.5,N
1532425675.0,286046998.2,N
1532425675.9,286046998.2,N
1532425695.8,286046999.7,N
1532425715.6,286046999.8,N
1532425735.4,286047001.0,N
1532425755.3,286046998.2,N
1532425775.1,286046998.5,N
1532425795.9,286047000.6,N
1532425815.7,286047002.4,N
1532425835.5,286047004.2,Y
1532425855.4,286047002.2,P
1532425875.2,286047001.7,N
1532425895.0,286047003.7,P
1532425896.0,286047003.7,N
1532425915.8,286047003.8,N
1532425935.6,286047004.2,N
1532425955.5,286047004.2,N
1532425975.3,286047003.9,N
1532425995.1,286047004.0,N
1532426015.9,286047004.0,N
1532426035.7,286047003.8,N
1532426055.6,286047002.0,N
1532426075.4,286047004.4,Y
1532426095.2,286046999.0,P
1532426115.1,286046999.6,N
1532426116.0,286046999.6,N
1532426135.8,286046997.3,N
1532426155.7,286046999.5,N
1532426175.5,286046996.6,N
1532426195.3,286046997.0,N
1532426215.2,286046997.1,N
1532426235.9,286046998.7,N
1532426255.7,286046996.9,N
1532426275.6,286046997.2,N
1532426295.4,286046998.8,N
1532426315.2,286046996.7,N
1532426335.1,286046999.6,N
1532426336.0,286046999.6,N
1532426355.8,286046997.1,N
1532426375.7,286046996.8,N
1532426395.5,286046996.5,N
